Regional Weather Roundup
Issued by NWS

Home | Current Version | Previous Version | Graphics & Text | Print | Product List | Glossary On
Versions: 1 2 3 4 5 6 7 8 9 10 11 12 13 14 15 16 17 18 19 20 21 22 23 24 25 26 27 28
000
ASUS45 KSLC 172110
RWRUT

UTAH REGIONAL WEATHER ROUNDUP
NATIONAL WEATHER SERVICE SALT LAKE CITY UT
300 PM MDT TUE OCT 17 2017

UTZ001>011-023>025-172200-

NORTHERN UTAH

CITY           SKY/WX    TMP DP  RH WIND       PRES   REMARKS
BRIGHAM CITY   SUNNY     64  14  14 CALM      30.19F
HILL AFB       MOSUNNY   66  19  16 SW5       30.19F
LOGAN          SUNNY     67  21  17 NE6       30.17F
OGDEN          SUNNY     67  19  16 VRB3      30.18F
SALT LAKE CITY PTSUNNY   69  24  18 W3        30.17F
TOOELE VALLEY  SUNNY     59  32  36 N8        30.19F
WENDOVER       MOSUNNY   56  16  20 S3        30.18F
WEST JORDAN    SUNNY     67  34  29 CALM      30.18F

$$

UTZ011>015-024>027-172200-

CENTRAL/NORTHEAST UTAH

CITY           SKY/WX    TMP DP  RH WIND       PRES   REMARKS
PROVO AIRPORT  SUNNY     63  25  23 W3        30.19F
MOAB/CANYONLAN SUNNY     69  10  10 VRB3      30.22F
DELTA          SUNNY     68  12  11 CALM      30.18F
PRICE          SUNNY     64  11  12 S3        30.28F
RICHFIELD      SUNNY     75   3   6 CALM      30.20
ROOSEVELT      SUNNY     63  14  15 CALM      30.26F
VERNAL         SUNNY     63  14  15 SE5       30.24F

$$

UTZ013>016-019>022-027-172200-

SOUTHERN UTAH

CITY           SKY/WX    TMP DP  RH WIND       PRES   REMARKS
BRYCE CANYON   SUNNY     68  11  11 SE15      30.34F
CEDAR CITY     SUNNY     79  14   8 SW15      30.20F
MILFORD        SUNNY     77  11   8 S16       30.17F
ST GEORGE      CLEAR     78  10   7 CALM      30.09F
HANKSVILLE     SUNNY     70  14  11 N3        30.24F
KANAB          SUNNY     79  23  12 S5G15     30.23
BLANDING         N/A     69  11  10 S7        30.35F

$$

REGIONAL REPORTS     COLORADO/ARIZONA

CITY           SKY/WX    TMP DP  RH WIND       PRES   REMARKS
CRAIG, CO      SUNNY     70   6   8 W13       30.24F
GRAND JUNCTION SUNNY     68  16  13 W6        30.23F
RIFLE, CO      SUNNY     67   8  10 VRB5      30.24F
MONTROSE, CO   SUNNY     68  15  13 N7        30.27F
CORTEZ, CO     SUNNY     71  12  10 SW7       30.28F
COLORADO CITY    N/A     82  27  13 CALM      30.21F
PAGE, AZ       SUNNY     69  15  12 N3        30.20F
GRAND CANYON   SUNNY     75  19  12 SW13      30.31F
KINGMAN, AZ    SUNNY     89  34  14 SW13G21   30.11F
FLAGSTAFF, AZ  SUNNY     72  22  15 W5G17     30.32F

$$

REGIONAL REPORTS    NEVADA/IDAHO/WYOMING

CITY           SKY/WX    TMP DP  RH WIND       PRES   REMARKS
LAS VEGAS, NV  MOSUNNY   82  13   7 NE3       30.05F
ELY, NY        SUNNY     75  23  14 SW12G21   30.21F
ELKO, NV       MOSUNNY   68  12  11 SW6       30.18F
POCATELLO, ID  SUNNY     64  28  25 SW5       30.14F
BURLEY, ID     PTSUNNY   68  24  19 NW3       30.10F
FORT BRIDGER,    N/A     71   3   7 W18G25    30.28F
EVANSTON, WY   CLOUDY    67   2   7 W20G28    30.26F
ROCK SPRINGS,  SUNNY     65  -1   7 W15G21    30.23F
KEMMERER, WY   CLOUDY    63   5  10 W16G23    30.26F

$$




USA.gov is the U.S. government's official web portal to all federal, state and local government web resources and services.